Regional Weather Roundup
Issued by NWS

Home | Current Version | Previous Version | Text Only | Print | Product List | Glossary Off
Versions: 1 2 3 4 5 6 7 8 9 10 11 12 13 14 15 16 17 18 19 20 21 22 23 24 25 26 27 28 29 30 31 32 33 34 35 36 37 38 39 40 41 42 43 44 45 46 47 48 49 50

000
ASUS43 KMPX 300210
RWRMN
WEATHER ROUNDUP FOR MINNESOTA
NATIONAL WEATHER SERVICE TWIN CITIES/CHANHASSEN MN
900 PM CDT SUN MAR 29 2015


NOTE: "FAIR" INDICATES FEW OR NO CLOUDS BELOW 12,000 FEET WITH NO
SIGNIFICANT WEATHER AND/OR OBSTRUCTIONS TO VISIBILITY. N/A MEANS
CURRENT SKY AND/OR WEATHER CONDITIONS ARE NOT AVAILABLE.

MNZ060>063-068>070-300300-
   Twin Cities Metro

CITY           SKY/WX    TMP DP  RH WIND       PRES   REMARKS
TWIN CITIES    CLEAR     46  27  47 W12       29.93R
ST PAUL        CLEAR     46  26  45 NW9       29.93R
CRYSTAL        CLEAR     46  27  47 W8        29.92R
BLAINE         CLEAR     45  28  53 W7        29.91R
LAKEVILLE      CLEAR     41  28  60 W9        29.94R
EDEN PRAIRIE   CLEAR     45  26  47 W8        29.93R
SOUTH ST PAUL  CLEAR     48  26  41 W9        29.92R
LAKE ELMO      FAIR      45  28  53 NW12      29.92R
$$
MNZ001>005-007-008-013>017-022>024-027-028-300300-
   Northwest Minnesota

CITY           SKY/WX    TMP DP  RH WIND       PRES   REMARKS
BEMIDJI        CLEAR     38  25  59 W7        29.87S
HALLOCK        PTCLDY    41  34  75 W6        29.86S
ROSEAU         CLEAR     43  28  56 W8        29.84R
WARROAD        CLEAR     39  28  65 W6        29.83S
THIEF RVR FALL CLEAR     45  32  61 W6        29.88S
CROOKSTON      PTCLDY    37  27  65 W9        29.90S
FOSSTON        CLEAR     34  27  75 CALM      29.90R
DETROIT LAKES  PTCLDY    43  30  61 CALM      29.92S
MOORHEAD       MOCLDY    45  32  61 W6        29.94R
PARK RAPIDS    CLEAR     34  25  69 W6        29.89R WCI  29
MAHNOMEN       FAIR      37  30  78 SW5       29.90S
$$
MNZ006-009>011-018-025>026-300300-
   North Central Minnesota

CITY           SKY/WX    TMP DP  RH WIND       PRES   REMARKS
BAUDETTE       CLEAR     39  26  59 W8        29.81R
FLAG ISLAND    PTCLDY    43  27  52 W12       29.79S
INTL FALLS     CLEAR     37  25  61 W5        29.79R
WASKISH        CLEAR     37  28  70 CALM      29.84R
BIG FORK       CLEAR     37  25  60 CALM      29.83R
LONGVILLE      CLEAR     39  27  60 W6        29.87S
GRAND RAPIDS   CLEAR     41  25  52 W12       29.84R
ORR            CLEAR     36  25  64 W5        29.77S
COOK           PTCLDY    36  27  69 W7        29.80R
WALKER         FAIR      39  24  54 W5        29.87S
$$
MNZ012-019>021-037-300300-
   Northeast Minnesota

CITY           SKY/WX    TMP DP  RH WIND       PRES   REMARKS
DULUTH         PTCLDY    41  24  51 NW15G22   29.80R
ELY            MOCLDY    37  25  60 W8        29.76R
HIBBING        CLEAR     37  24  59 W6        29.81R
EVELETH        CLEAR     39  27  60 NW8       29.82R
DULUTH HARBOR  CLEAR     45  27  49 CALM      29.84R
TWO HARBORS    PTCLDY    45  28  53 NW9       29.76R
SILVER BAY     PTCLDY    41  27  56 W8        29.74R
GRAND MARAIS     N/A     40  28  62 VRB7G22   29.69R
G MARAIS ARPRT PTCLDY    34  25  69 W12G21    29.68R WCI  25
$$
MNZ029>031-032-039>041-046>048-054>057-064-300300-
   West Central Minnesota

CITY           SKY/WX    TMP DP  RH WIND       PRES   REMARKS
FERGUS FALLS   MOCLDY    39  28  65 W5        29.96R
WHEATON        CLEAR     39  27  60 SW7       29.98S
MORRIS         CLEAR     39  28  65 W7        29.96R
ALEXANDRIA     CLOUDY    39  26  59 W7        29.95R
ELBOW LAKE     FAIR      40  28  63 W3        29.95R
WADENA         MOCLDY    41  27  56 W5        29.92R
GLENWOOD       CLOUDY    43  28  56 W7        29.95S
APPLETON       CLEAR     37  27  65 W8        29.98R
BENSON         CLEAR     39  30  70 NW6       29.97R
ORTONVILLE     FAIR      46  27  46 NW3       29.98S
MADISON        CLEAR     43  27  52 W8        30.00R
WILLMAR        FAIR      41  28  60 W5        29.98R
$$
MNZ033>034-036-042>043-049>051-058-059-300300-
   Central Minnesota

CITY           SKY/WX    TMP DP  RH WIND       PRES   REMARKS
ST CLOUD       CLEAR     43  25  49 NW13      29.92R
SAUK CENTRE    FAIR      38  28  65 NW6       29.94R
PAYNESVILLE    CLEAR     37  27  69 SW8       29.95R
AITKIN         CLEAR     43  27  52 W5        29.87R
PINE RIVER     CLEAR     43  25  49 NW6       29.93R
BRAINERD       CLEAR     44  22  41 NW9       29.90R
STAPLES        CLEAR     36  25  64 W6        29.92R
LONG PRAIRIE   FAIR      41  27  56 W5        29.94R
LITTLE FALLS   CLEAR     45  21  39 NW3       29.92R
LITCHFIELD     CLEAR     45  28  53 CALM      29.96R
BUFFALO        CLEAR     45  27  49 W6        29.95R
MAPLE LAKE     CLEAR     44  29  56 W6        29.94R
$$
MNZ037-044-045-052-053-300300-
   East Central Minnesota

CITY           SKY/WX    TMP DP  RH WIND       PRES   REMARKS
PRINCETON      CLEAR     45  28  53 W9        29.91R
MORA           CLEAR     41  25  52 NW5       29.90R
CAMBRIDGE      CLEAR     46  28  49 W6        29.88R
RUSH CITY      PTCLDY    40  27  59 W3        29.89R
MOOSE LAKE     CLEAR     43  27  52 CALM      29.84R
HINCKLEY       FAIR      43  28  56 NW6       29.88R
CLOQUET        CLEAR     41  23  48 W7        29.83R
MCGREGOR       CLEAR     41  27  56 W5        29.87R
$$
MNZ071>073-080-081-089-090-097-098-300300-
   Southwest Minnesota

CITY           SKY/WX    TMP DP  RH WIND       PRES   REMARKS
MONTEVIDEO     CLEAR     46  27  46 CALM      30.00R
GRANITE FALLS  CLEAR     39  25  57 W8        30.01R
CANBY          CLEAR     43  26  50 W6        30.02R
MARSHALL       FAIR      41  21  45 W12       30.02R
REDWOOD FALLS  CLEAR     48  27  44 NW8       29.99R
OLIVIA         CLEAR     37  28  70 W7        29.98R
PIPESTONE      CLEAR     46  21  36 NW5       30.04R
WINDOM         CLEAR     43  25  49 W7        30.03R
WORTHINGTON    CLEAR     43  21  42 NW8       30.05R
JACKSON        CLEAR     45  21  39 NW8       30.04R
TRACY          CLEAR     47  25  41 W6        30.02R
SLAYTON        CLEAR     40  21  45 CALM      30.04R
$$
MNZ065>067-074>077-082>085-091>093-300300-
   South Central Minnesota

CITY           SKY/WX    TMP DP  RH WIND       PRES   REMARKS
MANKATO        CLEAR     45  30  57 W10       29.98R
NEW ULM        CLEAR     46  27  46 NW15      29.99R
ST JAMES       CLEAR     45  27  49 W12       30.02R
FAIRMONT       CLEAR     48  21  34 NW13      30.01R
GLENCOE        CLEAR     44  32  64 W7        29.96R
FARIBAULT      CLEAR     43  30  61 W9        29.96R
OWATONNA       CLEAR     43  28  56 W12       29.96R
WASECA         CLEAR     43  30  61 NW10      29.98R
ALBERT LEA     CLEAR     46  30  53 NW10      29.98R
$$
MNZ078>079-086>088-094>096-300300-
   Southeast Minnesota

CITY           SKY/WX    TMP DP  RH WIND       PRES   REMARKS
ROCHESTER      CLEAR     40  29  64 NW16      29.93R
RED WING       CLEAR     48  25  40 W7        29.91R
STANTON        CLEAR     42  30  62 W8        29.93R
DODGE CENTER   CLEAR     43  30  61 W14       29.95R
WINONA         CLEAR     48  32  53 W13       29.90R
AUSTIN         CLEAR     45  30  57 NW14      29.96R
PRESTON        CLEAR     41  29  62 NW21G26   29.93R
$$
ABBREVIATIONS USED IN REMARKS
   TC - TEMPERATURES IN CELSIUS
  WCI - WIND CHILL INDEX
   HX - HEAT INDEX
  VSB - VISIBILITY
$$



USA.gov is the U.S. government's official web portal to all federal, state and local government web resources and services.